FW9463 Weather Reports


time (UTC)temp
F
wind
direction
speed
knots
gust
knots
rain 1hr
in
rain 24hr
in
rain mn
in
humidity
%
barometer
mb
20260504180449 76 314 4.3 13.0 0.00 0.00 0.00 36 1007.8
20260504175947 74 340 0.0 7.0 0.00 0.00 0.00 37 1007.8
20260504175444 75 339 1.7 3.5 0.00 0.00 0.00 36 1007.9
20260504174941 74 170 4.3 7.8 0.00 0.00 0.00 37 1008.0
20260504174439 74 250 0.0 7.0 0.00 0.00 0.00 37 1008.3
20260504173936 73 262 0.9 7.0 0.00 0.00 0.00 38 1008.4
20260504173432 74 8 0.0 4.3 0.00 0.00 0.00 37 1008.2
20260504172930 74 314 3.5 6.1 0.00 0.00 0.00 39 1008.4
20260504172426 74 0 1.7 3.5 0.00 0.00 0.00 38 1008.5
20260504171922 75 245 1.7 3.5 0.00 0.00 0.00 42 1008.5
20260504171420 73 81 0.0 6.1 0.00 0.00 0.00 41 1008.2
20260504170917 74 0 0.0 7.0 0.00 0.00 0.00 37 1008.4
20260504170413 73 148 1.7 2.6 0.00 0.00 0.00 38 1008.5
20260504160332 68 192 1.7 6.1 0.00 0.00 0.00 40 1009.6
20260504150756 66 270 1.7 5.2 0.00 0.00 0.00 43 1010.2
20260504150253 66 95 1.7 4.3 0.00 0.00 0.00 43 1010.4
20260504141223 63 267 2.6 6.1 0.00 0.00 0.00 48 1010.4
20260504140720 63 202 1.7 4.3 0.00 0.00 0.00 48 1010.3
20260504140215 63 265 0.0 3.5 0.00 0.00 0.00 48 1010.5
20260504130643 56 204 1.7 3.5 0.00 0.00 0.00 60 1010.8
20260504130140 55 180 0.0 5.2 0.00 0.00 0.00 60 1011.1
20260504120104 50 114 1.7 5.2 0.00 0.00 0.00 72 1011.5
20260504110531 45 106 0.0 1.7 0.00 0.00 0.00 85 1011.5
20260504100448 43 114 0.0 0.9 0.00 0.00 0.00 85 1011.2
20260504081841 46 180 0.0 0.9 0.00 0.00 0.00 85 1011.5
20260504081337 46 175 1.7 2.6 0.00 0.00 0.00 84 1011.6
20260504080833 46 131 0.0 0.9 0.00 0.00 0.00 85 1011.7
20260504080331 46 132 0.0 1.7 0.00 0.00 0.00 84 1011.8
20260504070258 45 157 0.0 0.9 0.00 0.00 0.00 83 1011.7
20260504060218 45 102 0.0 1.7 0.00 0.00 0.00 82 1011.8
20260504050646 44 63 0.0 1.7 0.00 0.00 0.00 84 1012.0
20260504050143 43 117 0.0 0.9 0.00 0.00 0.00 84 1012.0
20260504045640 43 147 1.7 1.7 0.00 0.00 0.00 84 1012.1
20260504045140 43 106 0.0 1.7 0.00 0.00 0.00 84 1012.1
20260504044638 42 145 0.0 1.7 0.00 0.00 0.00 84 1012.0
20260504044135 42 75 0.0 0.9 0.00 0.00 0.00 84 1012.0
20260504043632 43 160 0.0 0.9 0.00 0.00 0.00 84 1012.1
20260504043129 42 140 0.0 0.9 0.00 0.00 0.00 85 1012.2
20260504042626 43 145 0.0 1.7 0.00 0.00 0.00 85 1012.2
20260504042123 43 203 0.0 0.9 0.00 0.00 0.00 86 1012.0
20260504041619 43 90 0.0 0.9 0.00 0.00 0.00 86 1012.0
20260504041115 42 106 0.0 0.0 0.00 0.00 0.00 85 1012.0
20260504040613 42 124 0.0 1.7 0.00 0.00 0.00 86 1011.6
20260504040109 42 106 0.0 0.9 0.00 0.00 0.00 85 1011.8
20260504035606 42 106 0.0 0.0 0.00 0.00 0.00 85 1011.8
20260504035102 42 74 0.0 0.0 0.00 0.00 0.00 84 1011.9
20260504034600 42 114 0.0 0.9 0.00 0.00 0.00 83 1012.0
20260504034057 42 151 0.0 0.9 0.00 0.00 0.00 84 1012.0
20260504033555 42 82 0.0 0.9 0.00 0.00 0.00 85 1012.1
20260504033052 43 120 0.0 0.9 0.00 0.00 0.00 85 1012.1
20260504032549 43 145 0.0 0.0 0.00 0.00 0.00 85 1012.1
20260504032045 43 120 0.0 0.0 0.00 0.00 0.00 86 1011.8
20260504031542 43 120 0.0 0.9 0.00 0.00 0.00 86 1012.0
20260504031038 43 114 0.0 0.0 0.00 0.00 0.00 86 1011.9
20260504030536 43 90 0.0 0.9 0.00 0.00 0.00 85 1011.9
20260504030032 43 84 0.9 0.9 0.00 0.00 0.00 84 1011.8
20260504025530 44 90 0.0 1.7 0.00 0.00 0.00 83 1011.7
20260504025026 44 78 0.0 0.9 0.00 0.00 0.00 83 1011.8
20260504024523 44 75 0.0 1.7 0.00 0.00 0.00 83 1011.9
20260504024020 44 114 0.0 0.9 0.00 0.00 0.00 84 1012.2
20260504023517 45 96 0.0 0.0 0.00 0.00 0.00 84 1011.8
20260504023013 45 82 0.0 0.0 0.00 0.00 0.00 83 1011.7
20260504022508 44 90 0.0 0.9 0.00 0.00 0.00 79 1011.7
20260504022005 45 98 0.9 0.9 0.00 0.00 0.00 78 1012.0
20260504021503 45 131 0.9 0.9 0.00 0.00 0.00 80 1011.5
20260504021000 46 106 0.0 0.0 0.00 0.00 0.00 79 1011.3
20260504020456 46 140 0.0 0.9 0.00 0.00 0.00 76 1011.7
20260504015953 46 140 0.0 0.0 0.00 0.00 0.00 73 1011.4
20260504015449 46 164 0.0 1.7 0.00 0.00 0.00 71 1011.4
20260504014945 47 105 0.0 0.9 0.00 0.00 0.00 71 1011.6
20260504014441 47 106 0.0 1.7 0.00 0.00 0.00 70 1011.5
20260504013938 47 114 0.0 0.9 0.00 0.00 0.00 72 1011.2
20260504013437 48 165 0.0 0.9 0.00 0.00 0.00 69 1011.4
20260504012932 48 114 0.0 0.9 0.00 0.00 0.00 72 1011.2
20260504012431 48 90 0.9 0.9 0.00 0.00 0.00 71 1011.3
20260504011928 49 99 0.0 0.0 0.00 0.00 0.00 67 1011.2
20260504011425 49 162 0.0 0.0 0.00 0.00 0.00 65 1011.0
20260504010920 50 148 0.0 0.9 0.00 0.00 0.00 71 1011.0
20260504010416 50 106 0.0 0.0 0.00 0.00 0.00 69 1011.2
20260504005913 51 106 0.0 0.9 0.00 0.00 0.00 70 1011.1
20260504005409 51 74 0.0 0.9 0.00 0.00 0.00 66 1010.9
20260504004908 51 74 0.0 0.0 0.00 0.00 0.00 63 1011.0
20260504004405 51 105 0.0 0.9 0.00 0.00 0.00 57 1010.9
20260504003901 52 90 0.0 0.0 0.00 0.00 0.00 61 1011.1
20260504003358 52 162 0.0 0.0 0.00 0.00 0.00 60 1011.0
20260504002855 53 162 0.0 0.9 0.00 0.00 0.00 59 1010.7
20260504002351 53 157 0.0 0.0 0.00 0.00 0.00 57 1010.8
20260504001849 55 99 0.0 0.0 0.00 0.00 0.00 57 1010.8
20260504001346 55 106 0.0 0.9 0.00 0.00 0.00 54 1011.0
20260504000843 56 23 0.0 0.0 0.00 0.00 0.00 53 1010.8
20260504000340 57 78 0.0 0.9 0.00 0.00 0.00 46 1010.9
20260503235838 57 114 0.0 0.0 0.00 0.00 0.00 44 1010.8
20260503235335 58 114 0.0 1.7 0.00 0.00 0.00 39 1010.6
20260503234832 58 99 0.0 0.0 0.00 0.00 0.00 39 1010.8
20260503234330 59 99 0.0 0.0 0.00 0.00 0.00 38 1010.4
20260503233827 60 218 0.0 1.7 0.00 0.00 0.00 35 1010.6
20260503233323 60 99 0.0 0.0 0.00 0.00 0.00 39 1010.6
20260503232820 61 144 1.7 1.7 0.00 0.00 0.00 36 1010.8
20260503232318 62 172 0.0 1.7 0.00 0.00 0.00 34 1010.5
20260503231815 62 331 0.0 1.7 0.00 0.00 0.00 33 1010.6
20260503231312 62 74 0.9 2.6 0.00 0.00 0.00 34 1010.5
20260503230808 62 277 0.0 2.6 0.00 0.00 0.00 36 1010.4
20260503230305 62 54 0.0 1.7 0.00 0.00 0.00 33 1010.4
20260503225803 62 218 0.0 2.6 0.00 0.00 0.00 34 1010.4
20260503225258 63 355 0.9 3.5 0.00 0.00 0.00 32 1010.2
20260503224755 62 84 0.0 3.5 0.00 0.00 0.00 32 1010.4
20260503224252 63 235 1.7 4.3 0.00 0.00 0.00 31 1010.5
20260503223750 63 60 0.0 4.3 0.00 0.00 0.00 33 1010.4
20260503223248 63 26 0.9 4.3 0.00 0.00 0.00 31 1010.5
20260503222743 64 225 1.7 4.3 0.00 0.00 0.00 30 1010.5
20260503222241 63 102 0.0 1.7 0.00 0.00 0.00 31 1010.7
20260503221740 63 270 0.0 4.3 0.00 0.00 0.00 31 1010.6
20260503221237 63 157 1.7 2.6 0.00 0.00 0.00 31 1010.5
20260503220733 63 111 0.9 4.3 0.00 0.00 0.00 31 1010.6
20260503220231 63 221 1.7 2.6 0.00 0.00 0.00 31 1010.7
20260503215727 63 291 0.9 2.6 0.00 0.00 0.00 32 1010.6
20260503215224 63 279 0.0 5.2 0.00 0.00 0.00 30 1010.7
20260503214722 63 262 0.9 7.0 0.00 0.00 0.00 31 1010.7
20260503214218 63 233 4.3 5.2 0.00 0.00 0.00 30 1010.7
20260503213717 63 97 2.6 7.8 0.00 0.00 0.00 31 1010.5
20260503213214 64 214 3.5 3.5 0.00 0.00 0.00 31 1010.6
20260503212710 64 270 0.9 5.2 0.00 0.00 0.00 31 1010.7
20260503212208 64 252 0.0 5.2 0.00 0.00 0.00 32 1010.6
20260503211706 65 253 0.0 3.5 0.00 0.00 0.00 32 1010.6
20260503211201 64 107 3.5 5.2 0.00 0.00 0.00 30 1010.7
20260503210657 65 270 0.0 4.3 0.00 0.00 0.00 30 1010.6
20260503210155 65 22 2.6 6.1 0.00 0.00 0.00 32 1010.8
20260503205650 65 18 2.6 3.5 0.00 0.00 0.00 31 1010.7
20260503205146 64 248 3.5 4.3 0.00 0.00 0.00 30 1010.8
20260503204643 64 337 0.9 6.1 0.00 0.00 0.00 31 1010.9
20260503204141 65 14 0.9 4.3 0.00 0.00 0.00 37 1010.9
20260503203637 63 7 2.6 4.3 0.00 0.00 0.00 31 1010.8
20260503203135 63 247 4.3 7.0 0.00 0.00 0.00 31 1010.9
20260503202632 64 270 0.0 4.3 0.00 0.00 0.00 33 1010.8
20260503202131 63 90 1.7 4.3 0.00 0.00 0.00 32 1011.0
20260503201628 62 199 2.6 7.0 0.00 0.00 0.00 31 1011.2
20260503201125 63 270 5.2 10.4 0.00 0.00 0.00 32 1010.9
20260503200621 64 352 1.7 4.3 0.00 0.00 0.00 31 1011.1
20260503200118 63 320 1.7 5.2 0.00 0.00 0.00 34 1011.4
20260503195615 63 0 1.7 7.8 0.00 0.00 0.00 32 1011.3
20260503195112 63 270 1.7 3.5 0.00 0.00 0.00 33 1011.3
20260503194609 63 246 0.9 4.3 0.00 0.00 0.00 36 1011.5
20260503194104 63 79 2.6 6.1 0.00 0.00 0.00 35 1011.5
20260503193601 63 294 1.7 6.1 0.00 0.00 0.00 35 1011.4
20260503193056 62 46 4.3 4.3 0.00 0.00 0.00 33 1011.8
20260503192552 62 270 2.6 7.0 0.00 0.00 0.00 35 1011.8
20260503192048 61 289 2.6 7.8 0.00 0.00 0.00 36 1012.0
20260503191545 60 0 0.0 4.3 0.00 0.00 0.00 35 1012.0
20260503191042 60 273 3.5 7.0 0.00 0.00 0.00 34 1011.9
20260503190539 61 209 2.6 8.7 0.00 0.00 0.00 35 1011.9
20260503190036 61 312 1.7 7.0 0.00 0.00 0.00 35 1012.1
20260503185533 60 287 3.5 6.1 0.00 0.00 0.00 35 1012.3
20260503185032 61 237 4.3 7.8 0.00 0.00 0.00 33 1012.3
20260503184529 60 146 1.7 3.5 0.00 0.00 0.00 38 1012.2
20260503184025 60 261 0.0 2.6 0.00 0.00 0.00 38 1012.3
20260503183522 60 11 1.7 4.3 0.00 0.00 0.00 36 1012.4
20260503183019 60 319 1.7 7.0 0.00 0.00 0.00 35 1012.5
20260503182518 60 294 1.7 7.8 0.00 0.00 0.00 37 1012.4
20260503182015 60 255 0.9 5.2 0.00 0.00 0.00 37 1012.4
20260503181512 59 180 0.9 3.5 0.00 0.00 0.00 38 1012.5
20260503181008 59 222 4.3 5.2 0.00 0.00 0.00 36 1012.6